When you browse on this site, cookies collect data to enhance your experience and personalize the content and advertising you see.
Visit our Privacy Policy to learn more. By continuing to use the site, you agree to this use of cookies and data.
  • In Latvia
  • List of Countries
  • For 7 days
  • Water Temperature
  • Weather Map
  • Weather Widgets
  • user-avatar
    Login

    Hourly Weather Biskira

    Today, 6 June, Saturday

    Time Temperature Precipitation Wind Pressure Humidity
    00:00 +29°C° 0 mm 5 mps 751 mmHg 28%
    01:00 +29°C° 0 mm 4 mps 751 mmHg 32%
    02:00 +28°C° 0 mm 4 mps 750 mmHg 35%
    03:00 +27°C° 0 mm 4 mps 750 mmHg 39%
    04:00 +27°C° 0 mm 4 mps 750 mmHg 39%
    05:00 +27°C° 0 mm 4 mps 751 mmHg 40%
    06:00 +27°C° 0 mm 5 mps 751 mmHg 40%
    07:00 +29°C° 0 mm 4 mps 751 mmHg 36%
    08:00 +30°C° 0 mm 4 mps 751 mmHg 32%
    09:00 +31°C° 0 mm 3 mps 751 mmHg 28%
    10:00 +33°C° 0 mm 3 mps 751 mmHg 25%
    11:00 +34°C° 0 mm 2 mps 751 mmHg 22%
    12:00 +35°C° 0 mm 2 mps 750 mmHg 19%
    13:00 +36°C° 0 mm 2 mps 750 mmHg 17%
    14:00 +36°C° 0 mm 2 mps 750 mmHg 15%
    15:00 +37°C° 0 mm 3 mps 749 mmHg 13%
    16:00 +37°C° 0 mm 3 mps 749 mmHg 14%
    17:00 +37°C° 0 mm 4 mps 749 mmHg 14%
    18:00 +36°C° 0 mm 4 mps 749 mmHg 15%
    19:00 +36°C° 0 mm 3 mps 749 mmHg 17%
    20:00 +35°C° 0 mm 2 mps 749 mmHg 20%
    21:00 +33°C° 0 mm 1 mps 749 mmHg 22%
    22:00 +34°C° 0 mm 2 mps 748 mmHg 22%
    23:00 +34°C° 0 mm 2 mps 748 mmHg 21%

    Tomorrow, 7 June, Sunday

    Time Temperature Precipitation Wind Pressure Humidity
    00:00 +33°C° 0 mm 3 mps 747 mmHg 21%
    01:00 +33°C° 0 mm 3 mps 747 mmHg 21%
    02:00 +31°C° 0 mm 3 mps 747 mmHg 21%
    03:00 +31°C° 0 mm 3 mps 747 mmHg 21%
    04:00 +32°C° 0 mm 5 mps 747 mmHg 22%
    05:00 +32°C° 0 mm 6 mps 747 mmHg 22%
    06:00 +32°C° 0 mm 8 mps 747 mmHg 23%
    07:00 +34°C° 0.1 mm 7 mps 747 mmHg 22%
    08:00 +35°C° 0.1 mm 7 mps 747 mmHg 22%
    09:00 +36°C° 0.1 mm 7 mps 747 mmHg 21%
    10:00 +38°C° 0 mm 6 mps 747 mmHg 19%
    11:00 +39°C° 0 mm 5 mps 746 mmHg 18%
    12:00 +41°C° 0 mm 4 mps 746 mmHg 17%
    13:00 +41°C° 0 mm 5 mps 746 mmHg 16%
    14:00 +42°C° 0 mm 6 mps 745 mmHg 16%
    15:00 +44°C° 0 mm 7 mps 745 mmHg 16%
    16:00 +41°C° 0 mm 7 mps 745 mmHg 17%
    17:00 +40°C° 0 mm 8 mps 746 mmHg 18%
    18:00 +39°C° 0 mm 9 mps 746 mmHg 19%
    19:00 +38°C° 0 mm 9 mps 746 mmHg 23%
    20:00 +37°C° 0 mm 8 mps 747 mmHg 27%
    21:00 +34°C° 0 mm 7 mps 747 mmHg 31%
    22:00 +34°C° 0 mm 6 mps 747 mmHg 32%
    23:00 +33°C° 0 mm 5 mps 747 mmHg 34%

    Day after tomorrow, 8 June, Monday

    Time Temperature Precipitation Wind Pressure Humidity
    00:00 +32°C° 0 mm 4 mps 747 mmHg 35%
    01:00 +32°C° 0 mm 4 mps 747 mmHg 35%
    02:00 +30°C° 0 mm 4 mps 747 mmHg 35%
    03:00 +30°C° 0 mm 3 mps 747 mmHg 34%
    04:00 +30°C° 0 mm 3 mps 747 mmHg 34%
    05:00 +30°C° 0 mm 3 mps 747 mmHg 34%
    06:00 +30°C° 0 mm 3 mps 747 mmHg 33%
    07:00 +31°C° 0 mm 3 mps 747 mmHg 31%
    08:00 +33°C° 0 mm 3 mps 748 mmHg 29%
    09:00 +34°C° 0 mm 3 mps 748 mmHg 27%
    10:00 +35°C° 0 mm 3 mps 747 mmHg 25%
    11:00 +36°C° 0 mm 4 mps 747 mmHg 22%
    12:00 +37°C° 0 mm 4 mps 747 mmHg 19%
    13:00 +37°C° 0 mm 4 mps 746 mmHg 19%
    14:00 +37°C° 0 mm 5 mps 746 mmHg 18%
    15:00 +39°C° 0 mm 5 mps 745 mmHg 18%
    16:00 +38°C° 0 mm 6 mps 745 mmHg 19%
    17:00 +37°C° 0 mm 8 mps 746 mmHg 19%
    18:00 +37°C° 0 mm 9 mps 746 mmHg 20%
    19:00 +35°C° 0 mm 9 mps 747 mmHg 22%
    20:00 +34°C° 0 mm 8 mps 747 mmHg 25%
    21:00 +32°C° 0 mm 7 mps 748 mmHg 27%
    22:00 +32°C° 0 mm 7 mps 748 mmHg 31%
    23:00 +30°C° 0 mm 7 mps 748 mmHg 35%

    9 June, Tuesday

    Time Temperature Precipitation Wind Pressure Humidity
    00:00 +30°C° 0 mm 7 mps 748 mmHg 38%
    01:00 +29°C° 0 mm 6 mps 748 mmHg 40%
    02:00 +28°C° 0 mm 5 mps 748 mmHg 41%
    03:00 +27°C° 0 mm 4 mps 748 mmHg 42%
    04:00 +27°C° 0 mm 5 mps 748 mmHg 42%
    05:00 +27°C° 0 mm 5 mps 749 mmHg 41%
    06:00 +27°C° 0 mm 5 mps 749 mmHg 41%
    07:00 +28°C° 0 mm 5 mps 749 mmHg 39%
    08:00 +29°C° 0 mm 4 mps 749 mmHg 36%
    09:00 +30°C° 0 mm 4 mps 749 mmHg 33%
    10:00 +33°C° 0 mm 4 mps 749 mmHg 29%
    11:00 +34°C° 0 mm 3 mps 749 mmHg 24%
    12:00 +35°C° 0 mm 3 mps 749 mmHg 19%
    13:00 +35°C° 0 mm 4 mps 749 mmHg 18%
    14:00 +36°C° 0 mm 5 mps 748 mmHg 16%
    15:00 +36°C° 0 mm 6 mps 748 mmHg 15%
    16:00 +35°C° 0 mm 6 mps 748 mmHg 16%
    17:00 +35°C° 0 mm 7 mps 748 mmHg 17%
    18:00 +34°C° 0 mm 7 mps 749 mmHg 18%
    19:00 +33°C° 0 mm 6 mps 749 mmHg 22%
    20:00 +33°C° 0 mm 6 mps 750 mmHg 27%
    21:00 +32°C° 0 mm 5 mps 751 mmHg 31%
    22:00 +30°C° 0 mm 4 mps 751 mmHg 33%
    23:00 +30°C° 0 mm 4 mps 750 mmHg 34%

    10 June, Wednesday

    Time Temperature Precipitation Wind Pressure Humidity
    00:00 +30°C° 0 mm 3 mps 750 mmHg 35%
    01:00 +30°C° 0 mm 3 mps 750 mmHg 36%
    02:00 +29°C° 0 mm 3 mps 750 mmHg 36%
    03:00 +29°C° 0 mm 3 mps 750 mmHg 36%
    04:00 +28°C° 0 mm 4 mps 750 mmHg 43%
    05:00 +27°C° 0 mm 4 mps 751 mmHg 50%
    06:00 +26°C° 0 mm 4 mps 751 mmHg 57%
    07:00 +27°C° 0 mm 4 mps 751 mmHg 52%
    08:00 +28°C° 0 mm 4 mps 751 mmHg 48%
    09:00 +29°C° 0 mm 4 mps 751 mmHg 44%
    10:00 +32°C° 0 mm 4 mps 751 mmHg 40%
    11:00 +33°C° 0 mm 3 mps 751 mmHg 35%
    12:00 +34°C° 0 mm 3 mps 750 mmHg 31%
    13:00 +34°C° 0 mm 3 mps 750 mmHg 30%
    14:00 +34°C° 0 mm 4 mps 750 mmHg 29%
    15:00 +35°C° 0 mm 4 mps 750 mmHg 27%
    16:00 +33°C° 0.1 mm 5 mps 750 mmHg 31%
    17:00 +32°C° 0.1 mm 5 mps 750 mmHg 35%
    18:00 +30°C° 0.1 mm 6 mps 750 mmHg 38%
    19:00 +30°C° 0 mm 4 mps 750 mmHg 37%
    20:00 +30°C° 0 mm 3 mps 751 mmHg 35%
    21:00 +30°C° 0 mm 2 mps 751 mmHg 33%
    22:00 +30°C° 0 mm 2 mps 751 mmHg 32%
    23:00 +30°C° 0 mm 3 mps 751 mmHg 32%

    11 June, Thursday

    Time Temperature Precipitation Wind Pressure Humidity
    00:00 +30°C° 0 mm 3 mps 751 mmHg 31%
    01:00 +30°C° 0.1 mm 3 mps 751 mmHg 35%
    02:00 +29°C° 0.1 mm 3 mps 750 mmHg 39%
    03:00 +28°C° 0.1 mm 2 mps 750 mmHg 43%
    04:00 +27°C° 0.1 mm 2 mps 750 mmHg 47%
    05:00 +27°C° 0.1 mm 2 mps 750 mmHg 50%
    06:00 +26°C° 0.1 mm 2 mps 750 mmHg 54%
    07:00 +27°C° 0 mm 2 mps 750 mmHg 52%
    08:00 +27°C° 0 mm 1 mps 750 mmHg 49%
    09:00 +28°C° 0 mm 1 mps 750 mmHg 47%
    10:00 +29°C° 0 mm 2 mps 750 mmHg 44%
    11:00 +30°C° 0 mm 2 mps 750 mmHg 41%
    12:00 +31°C° 0 mm 2 mps 749 mmHg 38%
    13:00 +32°C° 0 mm 4 mps 749 mmHg 36%
    14:00 +33°C° 0 mm 6 mps 749 mmHg 35%
    15:00 +33°C° 0 mm 8 mps 748 mmHg 33%
    16:00 +33°C° 0.2 mm 9 mps 748 mmHg 34%
    17:00 +32°C° 0.2 mm 10 mps 749 mmHg 35%
    18:00 +31°C° 0.2 mm 11 mps 749 mmHg 35%
    19:00 +31°C° 0.1 mm 9 mps 749 mmHg 36%
    20:00 +29°C° 0.1 mm 7 mps 749 mmHg 37%
    21:00 +29°C° 0.1 mm 5 mps 750 mmHg 39%
    22:00 +28°C° 0.4 mm 5 mps 749 mmHg 42%
    23:00 +27°C° 0.4 mm 4 mps 749 mmHg 45%
    Show more